User: anonymous   Login
Location: *
(51.5000°N, 0.1100°W)
Time: 13:54:30
(UTC+00:00)
Language:

Cosmos 2237 - Orbit

View from above orbital plane
View from above orbital plane
View from above satellite
View from above satellite

Ground track
Ground track

The orbit data is extracted from the following two-line orbital elements,

1 22565U 93016A   24198.87134313 -.00000052  00000-0 -16373-5 0  9997
2 22565  70.8211 353.1298 0008339 230.7258 129.3123 14.12519824614461
Epoch (UTC): 16 July 2024 20:54:44
Eccentricity: 0.0008339
inclination: 70.8211°
perigee height: 845 km
apogee height: 857 km
right ascension of ascending node: 353.1298°
argument of perigee: 230.7258°
revolutions per day: 14.12519824
mean anomaly at epoch: 129.3123°
orbit number at epoch: 61446

The dashed part of the orbit path shows where the satellite is in the earth's shadow,  

DLR